Tracking 25964 objects as of 11-Aug-2022
HD Live streaming from Space Station
objects crossing your sky now

STARLINK-2116

Track STARLINK-2116 now!
10-day predictions
STARLINK-2116 is classified as:


NORAD ID: 47724
Int'l Code: 2021-017C
Perigee: 553.4 km
Apogee: 555.3 km
Inclination: 53.1 °
Period: 95.6 minutes
Semi major axis: 6925 km
RCS: Unknown
Launch date: March 4, 2021
Source: United States (US)
Launch site: AIR FORCE EASTERN TEST RANGE (AFETR)
aabbcc
Your satellite tracking list
Your tracking list is empty




NASA's NSSDC Master Catalog

Two Line Element Set (TLE):
1 47724U 21017C   22223.14221221 -.00000381  00000-0 -67170-5 0  9991
2 47724  53.0542 236.9459 0001391  72.9316 287.1826 15.06390361 81282
Source of the keplerian elements: AFSPC